sat.trackr.live / text

‹ back to catalog

GONETS-M 3

NORAD 38734 · 2012-041B

PAYLOAD ACTIVE UNKNOWN

§ Identity

Operator
Country
CIS
Launch date
2012-07-28
Launch site
PLMSC
Launch vehicle
Mass (kg)
RCS (m²)
1.66

External: N2YO · Heavens-Above · Gunter

§ Orbital elements

Epoch: 2026-09-20T05:22:37.882848Z

Period
115.67 min
Inclination
82.4804°
Eccentricity
0.0016440
Mean motion
12.44905744 rev/d
Perigee alt
1,472.9 km
Apogee alt
1,498.8 km
Semi-major
7,864.0 km
B*
5.9591e-4
RAAN
5.2750°
Arg perigee
210.2396°
Mean anomaly
149.7737°
Rev number
64,249

§ Raw data

GONETS-M 31 38734U 12041B   26263.22404957  .00000095  00000+0  59591-3 0  99902 38734  82.4804   5.2750 0016440 210.2396 149.7737 12.44905744642493

JSON: /api/v1/satellites/38734 · /tle

For live sub-satellite position, see the globe view (requires WebGL).

§ Visibility from observer

Set your observer location to see the next 7 days of passes ≥ 10°. The values pass through the URL so the page stays shareable.

No JS? Fill the form by hand. The geolocation button needs JavaScript.